Home   Weather   Salisbury   Past weeks
Flag for United Kingdom

Past Weather in Salisbury, England, United Kingdom — February 2018

Now
41 °F

Passing clouds.


Feels Like: 37 °F
Forecast: 46 / 40 °F
Wind: 6 mph from South

Location: Boscombe Down

Current Time: Dec 16, 2019 at 6:15:34 am

Latest Report: Dec 16, 2019 at 4:50 am


Visibility: N/A

Pressure: 29.47 "Hg

Humidity: 93%

Dew Point: 39 °F

Location of SalisburyLocation

February 2018 Weather in Salisbury — Graph

°F

High & Low Weather Summary for February 2018

 TemperatureHumidityPressure
High54 °F (Feb 19, 1:50 pm)100% (Feb 3, 6:50 am)30.42 "Hg (Feb 3, 6:50 am)
Low21 °F (Feb 27, 9:50 pm)36% (Feb 25, 3:50 pm)29.39 "Hg (Feb 13, 10:50 am)
Average37 °F80%30.01 "Hg
* Reported Feb 1 12:50 am — Feb 28 11:50 pm, Salisbury. Weather by CustomWeather, © 2019

Note: Actual official high and low records may vary slightly from our data, if they occured in-between our weather recording intervals... More about our weather records

Salisbury Weather History for February 1, 2018

Scroll right to see more
 ConditionsComfort  
Time TempWeatherWind HumidityBarometerVisibility
12:50 am
Thu, Feb 1
36 °FPassing clouds.15 mph87%29.50 "HgN/A
1:50 am36 °FPartly cloudy.12 mph93%29.50 "HgN/A
2:50 am39 °FPartly cloudy.14 mph87%29.53 "HgN/A
3:50 am37 °FPassing clouds.14 mph87%29.53 "HgN/A
4:50 am36 °FPassing clouds.12 mph87%29.56 "HgN/A
5:50 am36 °FChilly.15 mph81%29.59 "HgN/A
6:50 am36 °FPassing clouds.14 mph87%29.59 "HgN/A
7:50 am36 °FPassing clouds.17 mph87%29.62 "HgN/A
8:50 am37 °FScattered clouds.16 mph81%29.65 "HgN/A
9:50 am41 °FPartly sunny.17 mph76%29.65 "HgN/A
10:50 am43 °FPassing clouds.17 mph66%29.68 "HgN/A
11:50 am45 °FPassing clouds.20 mph61%29.68 "HgN/A
12:50 pm45 °FScattered clouds.20 mph57%29.68 "HgN/A
1:50 pm45 °FScattered clouds.20 mph57%29.68 "HgN/A
2:50 pm45 °FScattered clouds.21 mph61%29.68 "HgN/A
3:50 pm43 °FScattered clouds.15 mph66%29.71 "HgN/A
4:50 pm41 °FScattered clouds.14 mph70%29.71 "HgN/A
5:50 pm39 °FPassing clouds.15 mph75%29.74 "HgN/A
6:50 pm39 °FPassing clouds.17 mph75%29.74 "HgN/A
7:50 pm39 °FPassing clouds.15 mph81%29.77 "HgN/A
8:50 pm37 °FChilly.12 mph81%29.80 "HgN/A
9:50 pm36 °FPassing clouds.8 mph87%29.80 "HgN/A
10:50 pm36 °FChilly.10 mph87%29.80 "HgN/A
11:50 pm34 °FChilly.9 mph93%29.83 "HgN/A
Weather by CustomWeather, © 2019

See weather overview

Advertising